Location: Caltech
(34.1382°N, 118.1253°W)
Time: 09:52:43
(UTC-08:00)

BREEZE M DEB (TANK) - Visible Passes

Search period start: 24 February 2018 00:00
Search period end: 06 March 2018 00:00
Orbit: 336 x 13672 km, 49.6° (Epoch: 23 February)

Date Brightness Start Highest point End Pass type
(mag) Time Alt. Az. Time Alt. Az. Time Alt. Az.
24 Feb 8.0 05:34:13 10° WNW 05:42:25 11° WNW 05:49:04 10° W visible
24 Feb 9.0 15:27:10 10° S 16:02:38 62° ESE 17:58:29 10° NE visible
24 Feb 8.6 20:02:55 10° W 21:54:45 67° N 23:02:06 10° E visible
25 Feb 7.7 01:34:44 10° NW 03:10:57 53° WSW 03:31:59 10° S visible
25 Feb 9.2 17:11:14 10° SW 17:57:55 87° NW 20:02:58 10° ENE visible
25 Feb 7.9 22:05:57 10° WNW 00:17:38 81° NE 00:51:05 10° SE visible
26 Feb 7.8 04:01:32 10° NW 05:01:27 17° WSW 05:07:50 10° SW visible
26 Feb 8.8 19:00:46 10° WSW 20:24:53 69° NNW 21:52:45 23° E visible
27 Feb 7.4 00:20:16 10° NW 02:27:50 40° S 02:35:37 10° SSE visible
27 Feb 9.3 16:13:09 10° SSW 16:51:51 82° ESE 18:56:58 10° ENE visible
27 Feb 8.3 20:58:40 10° W 23:08:11 73° NNE 23:31:43 56° E visible
28 Feb 7.6 02:41:50 10° NW 04:10:55 20° SW 04:15:17 10° SSW visible
28 Feb 9.0 18:00:11 10° WSW 19:01:36 74° NNW 20:54:32 15° ENE visible
28 Feb 7.8 23:07:46 10° WNW 01:36:22 18° SSE 01:38:31 10° SSE visible
01 Mar 8.5 19:53:55 10° W 21:51:05 69° NNE 22:34:12 44° E visible
02 Mar 7.6 01:25:27 10° NW 03:18:43 16° SSW 03:20:27 10° S visible
02 Mar 9.1 17:00:48 10° SW 17:48:02 82° NW 19:54:01 10° ENE visible
02 Mar 8.2 21:57:40 10° WNW 00:07:54 87° NE 00:14:04 80° ESE visible
03 Mar 8.9 03:55:54 10° NW 04:30:44 17° WNW 04:30:44 17° WNW visible
03 Mar 8.7 18:51:17 10° W 20:22:47 68° N 21:37:25 32° E visible
04 Mar 7.9 00:11:13 10° NW 02:25:41 - SSE 01:54:06 59° W visible
04 Mar 9.3 16:02:23 10° SW 16:40:28 87° SE 18:47:56 10° ENE visible
04 Mar 8.3 20:50:07 10° WNW 23:00:04 77° NE 23:17:33 65° E visible
05 Mar 8.7 02:33:10 10° NW 03:34:15 27° W 03:34:15 27° W visible
05 Mar 8.9 17:50:15 10° WSW 18:55:27 71° NNW 20:41:04 21° ENE visible
